Time,TemperatureF,DewpointF,PressureIn,WindDirection,WindDirectionDegrees,WindSpeedMPH,WindSpeedGustMPH,Humidity,HourlyPrecipIn,Conditions,Clouds,dailyrainin,SolarRadiationWatts/m^2,SoftwareType,DateUTC
2013-06-28 00:01:00,63.0,55.0,-100.00,NW,310,0.0,6.0,75,0.00,,,0.00,0.000000,,2013-06-28 07:01:00,
2013-06-28 00:11:00,63.0,55.0,-100.00,NW,310,0.0,6.0,75,0.00,,,0.00,0.000000,,2013-06-28 07:11:00,
2013-06-28 00:22:00,63.0,55.0,-100.00,NW,310,0.0,6.0,75,0.00,,,0.00,0.000000,,2013-06-28 07:22:00,
2013-06-28 00:33:00,63.0,55.0,-100.00,NW,310,0.0,6.0,75,0.00,,,0.00,0.000000,,2013-06-28 07:33:00,
2013-06-28 01:01:00,61.0,55.0,-100.00,WNW,286,2.0,6.0,80,0.00,,,0.00,0.000000,,2013-06-28 08:01:00,
2013-06-28 01:11:00,61.0,55.0,-100.00,WNW,286,2.0,6.0,80,0.00,,,0.00,0.000000,,2013-06-28 08:11:00,
2013-06-28 01:21:00,61.0,55.0,-100.00,WNW,286,2.0,6.0,80,0.00,,,0.00,0.000000,,2013-06-28 08:21:00,
2013-06-28 01:33:00,61.0,55.0,-100.00,WNW,286,2.0,6.0,80,0.00,,,0.00,0.000000,,2013-06-28 08:33:00,
2013-06-28 02:02:00,61.0,56.0,-100.00,WSW,254,0.0,6.0,84,0.00,,,0.00,0.000000,,2013-06-28 09:02:00,
2013-06-28 02:11:00,61.0,56.0,-100.00,WSW,254,0.0,6.0,84,0.00,,,0.00,0.000000,,2013-06-28 09:11:00,
2013-06-28 02:22:00,61.0,56.0,-100.00,WSW,254,0.0,6.0,84,0.00,,,0.00,0.000000,,2013-06-28 09:22:00,
2013-06-28 02:33:00,61.0,56.0,-100.00,WSW,254,0.0,6.0,84,0.00,,,0.00,0.000000,,2013-06-28 09:33:00,
2013-06-28 03:02:00,57.0,53.0,-100.00,WNW,293,1.0,5.0,88,0.00,,,0.00,0.000000,,2013-06-28 10:02:00,
2013-06-28 03:11:00,57.0,53.0,-100.00,WNW,293,1.0,5.0,88,0.00,,,0.00,0.000000,,2013-06-28 10:11:00,
2013-06-28 03:22:00,57.0,53.0,-100.00,WNW,293,1.0,5.0,88,0.00,,,0.00,0.000000,,2013-06-28 10:22:00,
2013-06-28 03:33:00,57.0,53.0,-100.00,WNW,293,1.0,5.0,88,0.00,,,0.00,0.000000,,2013-06-28 10:33:00,
2013-06-28 04:02:00,58.0,55.0,-100.00,WNW,290,0.0,4.0,90,0.00,,,0.00,0.000000,,2013-06-28 11:02:00,
2013-06-28 04:11:00,58.0,55.0,-100.00,WNW,290,0.0,4.0,90,0.00,,,0.00,0.000000,,2013-06-28 11:11:00,
2013-06-28 04:22:00,58.0,55.0,-100.00,WNW,290,0.0,4.0,90,0.00,,,0.00,0.000000,,2013-06-28 11:22:00,
2013-06-28 04:34:00,58.0,55.0,-100.00,WNW,290,0.0,4.0,90,0.00,,,0.00,0.000000,,2013-06-28 11:34:00,
2013-06-28 05:01:00,57.0,55.0,-100.00,North,8,0.0,3.0,93,0.00,,,0.00,0.000000,,2013-06-28 12:01:00,
2013-06-28 05:12:00,57.0,55.0,-100.00,North,8,0.0,3.0,93,0.00,,,0.00,0.000000,,2013-06-28 12:12:00,
2013-06-28 05:22:00,57.0,55.0,-100.00,North,8,0.0,3.0,93,0.00,,,0.00,0.000000,,2013-06-28 12:22:00,
2013-06-28 05:33:00,57.0,55.0,-100.00,North,8,0.0,3.0,93,0.00,,,0.00,0.000000,,2013-06-28 12:33:00,
2013-06-28 06:01:00,57.0,55.0,-100.00,WNW,282,1.0,4.0,94,0.00,,,0.00,14.000000,,2013-06-28 13:01:00,
2013-06-28 06:11:00,57.0,55.0,-100.00,WNW,282,1.0,4.0,94,0.00,,,0.00,14.000000,,2013-06-28 13:11:00,
2013-06-28 06:23:00,57.0,55.0,-100.00,WNW,282,1.0,4.0,94,0.00,,,0.00,14.000000,,2013-06-28 13:23:00,
2013-06-28 06:33:00,57.0,55.0,-100.00,WNW,282,1.0,4.0,94,0.00,,,0.00,14.000000,,2013-06-28 13:33:00,
2013-06-28 07:11:00,61.0,56.0,-100.00,South,189,0.0,4.0,85,0.00,,,0.00,120.000000,,2013-06-28 14:11:00,
2013-06-28 07:22:00,61.0,56.0,-100.00,South,189,0.0,4.0,85,0.00,,,0.00,120.000000,,2013-06-28 14:22:00,
2013-06-28 07:33:00,61.0,56.0,-100.00,South,189,0.0,4.0,85,0.00,,,0.00,120.000000,,2013-06-28 14:33:00,
2013-06-28 08:02:00,65.0,57.0,-100.00,SSE,153,3.0,8.0,75,0.00,,,-99.99,305.000000,,2013-06-28 15:02:00,
2013-06-28 08:11:00,65.0,57.0,-100.00,SSE,153,3.0,8.0,75,0.00,,,-99.99,305.000000,,2013-06-28 15:11:00,
2013-06-28 08:24:00,65.0,57.0,-100.00,SSE,153,3.0,8.0,75,0.00,,,-99.99,305.000000,,2013-06-28 15:24:00,
2013-06-28 08:33:00,65.0,57.0,-100.00,SSE,153,3.0,8.0,75,0.00,,,-99.99,305.000000,,2013-06-28 15:33:00,
2013-06-28 09:01:00,68.0,57.0,-100.00,SE,146,4.0,7.0,67,0.00,,,0.00,542.000000,,2013-06-28 16:01:00,
2013-06-28 09:11:00,68.0,57.0,-100.00,SE,146,4.0,7.0,67,0.00,,,0.00,542.000000,,2013-06-28 16:11:00,
2013-06-28 09:24:00,68.0,57.0,-100.00,SE,146,4.0,7.0,67,0.00,,,0.00,542.000000,,2013-06-28 16:24:00,
2013-06-28 09:33:00,68.0,57.0,-100.00,SE,146,4.0,7.0,67,0.00,,,0.00,542.000000,,2013-06-28 16:33:00,
2013-06-28 10:02:00,70.0,57.0,-100.00,SE,146,3.0,6.0,63,0.00,,,0.00,738.000000,,2013-06-28 17:02:00,
2013-06-28 10:11:00,70.0,57.0,-100.00,SE,146,3.0,6.0,63,0.00,,,0.00,738.000000,,2013-06-28 17:11:00,
2013-06-28 10:22:00,70.0,57.0,-100.00,SE,146,3.0,6.0,63,0.00,,,0.00,738.000000,,2013-06-28 17:22:00,
2013-06-28 10:33:00,70.0,57.0,-100.00,SE,146,3.0,6.0,63,0.00,,,0.00,738.000000,,2013-06-28 17:33:00,
2013-06-28 11:01:00,74.0,57.0,-100.00,SE,143,3.0,5.0,55,0.00,,,0.00,908.000000,,2013-06-28 18:01:00,
2013-06-28 11:11:00,74.0,57.0,-100.00,SE,143,3.0,5.0,55,0.00,,,0.00,908.000000,,2013-06-28 18:11:00,
2013-06-28 11:22:00,74.0,57.0,-100.00,SE,143,3.0,5.0,55,0.00,,,0.00,908.000000,,2013-06-28 18:22:00,
2013-06-28 11:33:00,74.0,57.0,-100.00,SE,143,3.0,5.0,55,0.00,,,0.00,908.000000,,2013-06-28 18:33:00,
2013-06-28 12:01:00,79.0,58.0,-100.00,SE,140,3.0,5.0,48,0.00,,,0.00,1009.000000,,2013-06-28 19:01:00,
2013-06-28 12:11:00,79.0,58.0,-100.00,SE,140,3.0,5.0,48,0.00,,,0.00,1009.000000,,2013-06-28 19:11:00,
2013-06-28 12:22:00,79.0,58.0,-100.00,SE,140,3.0,5.0,48,0.00,,,0.00,1009.000000,,2013-06-28 19:22:00,
2013-06-28 12:32:00,79.0,58.0,-100.00,SE,140,3.0,5.0,48,0.00,,,0.00,1009.000000,,2013-06-28 19:32:00,
2013-06-28 13:02:00,83.0,55.0,-100.00,SE,130,2.0,5.0,39,0.00,,,0.00,1134.000000,,2013-06-28 20:02:00,
2013-06-28 13:11:00,83.0,55.0,-100.00,SE,130,2.0,5.0,39,0.00,,,0.00,1134.000000,,2013-06-28 20:11:00,
2013-06-28 13:22:00,83.0,55.0,-100.00,SE,130,2.0,5.0,39,0.00,,,0.00,1134.000000,,2013-06-28 20:22:00,
2013-06-28 13:33:00,83.0,55.0,-100.00,SE,130,2.0,5.0,39,0.00,,,0.00,1134.000000,,2013-06-28 20:33:00,
2013-06-28 14:01:00,86.0,51.0,-100.00,SSE,159,4.0,6.0,30,0.00,,,0.00,1147.000000,,2013-06-28 21:01:00,
2013-06-28 14:11:00,86.0,51.0,-100.00,SSE,159,4.0,6.0,30,0.00,,,0.00,1147.000000,,2013-06-28 21:11:00,
2013-06-28 14:23:00,86.0,51.0,-100.00,SSE,159,4.0,6.0,30,0.00,,,0.00,1147.000000,,2013-06-28 21:23:00,
2013-06-28 14:33:00,86.0,51.0,-100.00,SSE,159,4.0,6.0,30,0.00,,,0.00,1147.000000,,2013-06-28 21:33:00,
2013-06-28 15:01:00,88.0,53.0,-100.00,SSE,160,9.0,10.0,30,0.00,,,0.00,1123.000000,,2013-06-28 22:01:00,
2013-06-28 15:11:00,88.0,53.0,-100.00,SSE,160,9.0,10.0,30,0.00,,,0.00,1123.000000,,2013-06-28 22:11:00,
2013-06-28 15:22:00,88.0,53.0,-100.00,SSE,160,9.0,10.0,30,0.00,,,0.00,1123.000000,,2013-06-28 22:22:00,
2013-06-28 15:34:00,88.0,53.0,-100.00,SSE,160,9.0,10.0,30,0.00,,,0.00,1123.000000,,2013-06-28 22:34:00,
2013-06-28 16:01:00,89.0,54.0,-100.00,SSE,161,9.0,11.0,31,0.00,,,0.00,1028.000000,,2013-06-28 23:01:00,
2013-06-28 16:11:00,89.0,54.0,-100.00,SSE,161,9.0,11.0,31,0.00,,,0.00,1028.000000,,2013-06-28 23:11:00,
2013-06-28 16:23:00,89.0,54.0,-100.00,SSE,161,9.0,11.0,31,0.00,,,0.00,1028.000000,,2013-06-28 23:23:00,
2013-06-28 16:33:00,89.0,54.0,-100.00,SSE,161,9.0,11.0,31,0.00,,,0.00,1028.000000,,2013-06-28 23:33:00,
2013-06-28 17:02:00,88.0,53.0,-100.00,SSE,162,10.0,13.0,30,0.00,,,0.00,887.000000,,2013-06-29 00:02:00,
2013-06-28 17:11:00,88.0,53.0,-100.00,SSE,162,10.0,13.0,30,0.00,,,0.00,887.000000,,2013-06-29 00:11:00,
2013-06-28 17:22:00,88.0,53.0,-100.00,SSE,162,10.0,13.0,30,0.00,,,0.00,887.000000,,2013-06-29 00:22:00,
2013-06-28 17:33:00,88.0,53.0,-100.00,SSE,162,10.0,13.0,30,0.00,,,0.00,887.000000,,2013-06-29 00:33:00,
2013-06-28 18:01:00,88.0,52.0,-100.00,SSE,164,9.0,13.0,29,0.00,,,-99.99,706.000000,,2013-06-29 01:01:00,
2013-06-28 18:11:00,88.0,52.0,-100.00,SSE,164,9.0,13.0,29,0.00,,,-99.99,706.000000,,2013-06-29 01:11:00,
2013-06-28 18:22:00,88.0,52.0,-100.00,SSE,164,9.0,13.0,29,0.00,,,-99.99,706.000000,,2013-06-29 01:22:00,
2013-06-28 18:31:00,88.0,52.0,-100.00,SSE,164,9.0,13.0,29,0.00,,,-99.99,706.000000,,2013-06-29 01:31:00,
2013-06-28 19:01:00,89.0,53.0,-100.00,South,169,5.0,9.0,29,0.00,,,0.00,209.000000,,2013-06-29 02:01:00,
2013-06-28 19:10:00,89.0,53.0,-100.00,South,169,5.0,9.0,29,0.00,,,0.00,209.000000,,2013-06-29 02:10:00,
2013-06-28 19:21:00,89.0,53.0,-100.00,South,169,5.0,9.0,29,0.00,,,0.00,209.000000,,2013-06-29 02:21:00,
2013-06-28 19:31:00,89.0,53.0,-100.00,South,169,5.0,9.0,29,0.00,,,0.00,209.000000,,2013-06-29 02:31:00,
2013-06-28 20:01:00,88.0,54.0,-100.00,SSE,159,0.0,5.0,31,0.00,,,0.00,213.000000,,2013-06-29 03:01:00,
2013-06-28 20:11:00,88.0,54.0,-100.00,SSE,159,0.0,5.0,31,0.00,,,0.00,213.000000,,2013-06-29 03:11:00,
2013-06-28 20:21:00,88.0,54.0,-100.00,SSE,159,0.0,5.0,31,0.00,,,0.00,213.000000,,2013-06-29 03:21:00,
2013-06-28 20:31:00,88.0,54.0,-100.00,SSE,159,0.0,5.0,31,0.00,,,0.00,213.000000,,2013-06-29 03:31:00,
2013-06-28 21:01:00,81.0,54.0,-100.00,West,262,0.0,5.0,39,0.00,,,0.00,107.000000,,2013-06-29 04:01:00,
2013-06-28 21:11:00,81.0,54.0,-100.00,West,262,0.0,5.0,39,0.00,,,0.00,107.000000,,2013-06-29 04:11:00,
2013-06-28 21:22:00,81.0,54.0,-100.00,West,262,0.0,5.0,39,0.00,,,0.00,107.000000,,2013-06-29 04:22:00,
2013-06-28 21:31:00,81.0,54.0,-100.00,West,262,0.0,5.0,39,0.00,,,0.00,107.000000,,2013-06-29 04:31:00,
2013-06-28 22:01:00,76.0,57.0,-100.00,WNW,298,5.0,7.0,52,0.00,,,0.00,2.000000,,2013-06-29 05:01:00,
2013-06-28 22:10:00,76.0,57.0,-100.00,WNW,298,5.0,7.0,52,0.00,,,0.00,2.000000,,2013-06-29 05:10:00,
2013-06-28 22:21:00,76.0,57.0,-100.00,WNW,298,5.0,7.0,52,0.00,,,0.00,2.000000,,2013-06-29 05:21:00,
2013-06-28 22:31:00,76.0,57.0,-100.00,WNW,298,5.0,7.0,52,0.00,,,0.00,2.000000,,2013-06-29 05:31:00,
2013-06-28 23:01:00,71.0,56.0,-100.00,SSW,208,1.0,7.0,59,0.00,,,0.00,0.000000,,2013-06-29 06:01:00,
2013-06-28 23:12:00,71.0,56.0,-100.00,SSW,208,1.0,7.0,59,0.00,,,0.00,0.000000,,2013-06-29 06:12:00,
2013-06-28 23:22:00,71.0,56.0,-100.00,SSW,208,1.0,7.0,59,0.00,,,0.00,0.000000,,2013-06-29 06:22:00,
2013-06-28 23:33:00,71.0,56.0,-100.00,SSW,208,1.0,7.0,59,0.00,,,0.00,0.000000,,2013-06-29 06:33:00,